CAL066 RCTP-ROAH

Flight info

Callsign CAL066
Flight time 0h 58m
Altitude 29000
Route KUDOS1C KUDOS R595 SEDKU Y573 MJC Y57 VELNO
Aircraft A359/H-SDE1E2E3FGHIJ1J2J3J4J5M1P2RWY/LB1D1

Departure

Time 2026-04-23 15:11
Airport Taiwan Taoyuan International Airport (RCTP)

Arrival

Time 2026-04-23 16:09
Airport Naha International Airport (ROAH)
Time Latitude Longitude Altitude Speed Heading
2026-04-23 13:12 25.08180 121.23392 107 ft 0 kts 139°
2026-04-23 13:24 25.08183 121.23389 106 ft 0 kts 139°
2026-04-23 13:25 25.08182 121.23389 106 ft 0 kts 139°
2026-04-23 13:32 25.08190 121.23382 106 ft 3 kts 139°
2026-04-23 13:32 25.08205 121.23367 105 ft 3 kts 139°
2026-04-23 13:33 25.08221 121.23353 105 ft 3 kts 139°
2026-04-23 13:33 25.08236 121.23338 106 ft 3 kts 139°
2026-04-23 13:33 25.08248 121.23326 106 ft 3 kts 155°
2026-04-23 13:33 25.08253 121.23321 106 ft 3 kts 197°
2026-04-23 13:34 25.08263 121.23326 106 ft 2 kts 228°
2026-04-23 13:34 25.08270 121.23336 105 ft 2 kts 229°
2026-04-23 13:34 25.08283 121.23352 105 ft 3 kts 229°
2026-04-23 13:34 25.08293 121.23364 106 ft 1 kts 229°
2026-04-23 13:35 25.08293 121.23365 106 ft 0 kts 229°
2026-04-23 13:37 25.08292 121.23363 107 ft 2 kts 229°
2026-04-23 13:37 25.08275 121.23342 107 ft 6 kts 228°
2026-04-23 13:37 25.08241 121.23300 107 ft 9 kts 229°
2026-04-23 13:38 25.08192 121.23237 107 ft 12 kts 230°
2026-04-23 13:38 25.08130 121.23157 107 ft 15 kts 230°
2026-04-23 13:38 25.08053 121.23058 106 ft 18 kts 229°
2026-04-23 13:38 25.07970 121.22952 107 ft 19 kts 229°
2026-04-23 13:39 25.07892 121.22851 106 ft 18 kts 229°
2026-04-23 13:39 25.07804 121.22739 107 ft 20 kts 229°
2026-04-23 13:39 25.07705 121.22614 107 ft 22 kts 229°
2026-04-23 13:39 25.07603 121.22484 107 ft 24 kts 229°
2026-04-23 13:40 25.07498 121.22349 107 ft 22 kts 229°
2026-04-23 13:40 25.07400 121.22225 107 ft 20 kts 229°
2026-04-23 13:40 25.07327 121.22131 107 ft 8 kts 221°
2026-04-23 13:40 25.07320 121.22131 107 ft 0 kts 191°
2026-04-23 13:41 25.07314 121.22132 107 ft 4 kts 180°
2026-04-23 13:41 25.07276 121.22153 106 ft 11 kts 148°
2026-04-23 13:41 25.07203 121.22220 107 ft 14 kts 140°
2026-04-23 13:41 25.07124 121.22297 107 ft 16 kts 140°
2026-04-23 13:42 25.07030 121.22385 107 ft 19 kts 139°
2026-04-23 13:42 25.06926 121.22483 107 ft 19 kts 139°
2026-04-23 13:42 25.06838 121.22565 107 ft 15 kts 139°
2026-04-23 13:42 25.06752 121.22647 107 ft 17 kts 139°
2026-04-23 13:43 25.06740 121.22717 107 ft 9 kts 59°
2026-04-23 13:43 25.06787 121.22774 107 ft 11 kts 47°
2026-04-23 13:43 25.06844 121.22844 107 ft 13 kts 49°
2026-04-23 13:43 25.06908 121.22927 107 ft 15 kts 50°
2026-04-23 13:44 25.06980 121.23019 107 ft 16 kts 50°
2026-04-23 13:44 25.07059 121.23118 107 ft 18 kts 49°
2026-04-23 13:44 25.07133 121.23206 107 ft 9 kts 31°
2026-04-23 13:44 25.07182 121.23198 107 ft 8 kts 336°
2026-04-23 13:45 25.07238 121.23190 107 ft 9 kts 21°
2026-04-23 13:45 25.07289 121.23238 107 ft 11 kts 45°
2026-04-23 13:45 25.07343 121.23305 107 ft 13 kts 49°
2026-04-23 13:45 25.07406 121.23385 107 ft 15 kts 49°
2026-04-23 13:46 25.07478 121.23477 105 ft 17 kts 49°
2026-04-23 13:46 25.07558 121.23578 107 ft 19 kts 49°
2026-04-23 13:46 25.07645 121.23691 105 ft 20 kts 50°
2026-04-23 13:46 25.07740 121.23813 106 ft 22 kts 49°
2026-04-23 13:47 25.07839 121.23940 107 ft 20 kts 49°
2026-04-23 13:47 25.07901 121.24020 107 ft 0 kts 49°
2026-04-23 13:48 25.07908 121.24029 105 ft 5 kts 49°
2026-04-23 13:48 25.07938 121.24068 107 ft 8 kts 49°
2026-04-23 13:48 25.07981 121.24121 107 ft 11 kts 49°
2026-04-23 13:49 25.08034 121.24189 107 ft 13 kts 49°
2026-04-23 13:49 25.08098 121.24270 107 ft 15 kts 49°
2026-04-23 13:49 25.08154 121.24336 107 ft 5 kts 26°
2026-04-23 13:49 25.08179 121.24329 107 ft 5 kts 343°
2026-04-23 13:50 25.08216 121.24305 107 ft 8 kts 323°
2026-04-23 13:50 25.08265 121.24261 107 ft 10 kts 319°
2026-04-23 13:50 25.08328 121.24200 106 ft 13 kts 319°
2026-04-23 13:50 25.08406 121.24126 107 ft 16 kts 319°
2026-04-23 13:51 25.08498 121.24037 107 ft 19 kts 319°
2026-04-23 13:51 25.08604 121.23938 107 ft 20 kts 320°
2026-04-23 13:51 25.08665 121.23872 107 ft 5 kts 287°
2026-04-23 13:51 25.08651 121.23829 106 ft 7 kts 237°
2026-04-23 13:52 25.08614 121.23775 107 ft 10 kts 231°
2026-04-23 13:52 25.08559 121.23707 107 ft 13 kts 227°
2026-04-23 13:52 25.08491 121.23620 107 ft 16 kts 231°
2026-04-23 13:52 25.08411 121.23515 107 ft 19 kts 228°
2026-04-23 13:53 25.08318 121.23399 106 ft 19 kts 229°
2026-04-23 13:53 25.08245 121.23305 107 ft 15 kts 229°
2026-04-23 13:53 25.08171 121.23210 107 ft 18 kts 229°
2026-04-23 13:53 25.08083 121.23098 107 ft 21 kts 229°
2026-04-23 13:54 25.07982 121.22969 107 ft 24 kts 229°
2026-04-23 13:54 25.07873 121.22830 107 ft 23 kts 229°
2026-04-23 13:54 25.07781 121.22712 107 ft 21 kts 229°
2026-04-23 13:54 25.07681 121.22584 107 ft 23 kts 229°
2026-04-23 13:55 25.07569 121.22439 107 ft 25 kts 229°
2026-04-23 13:55 25.07469 121.22311 107 ft 22 kts 229°
2026-04-23 13:55 25.07371 121.22186 107 ft 22 kts 229°
2026-04-23 13:55 25.07296 121.22089 107 ft 13 kts 229°
2026-04-23 13:56 25.07235 121.22068 107 ft 10 kts 161°
2026-04-23 13:56 25.07178 121.22113 107 ft 11 kts 135°
2026-04-23 13:56 25.07116 121.22179 107 ft 14 kts 136°
2026-04-23 13:56 25.07040 121.22255 107 ft 15 kts 143°
2026-04-23 13:57 25.06948 121.22331 107 ft 18 kts 140°
2026-04-23 13:57 25.06847 121.22424 106 ft 20 kts 140°
2026-04-23 13:57 25.06733 121.22528 107 ft 22 kts 140°
2026-04-23 13:57 25.06633 121.22624 106 ft 14 kts 137°
2026-04-23 13:58 25.06610 121.22684 106 ft 7 kts 79°
2026-04-23 13:58 25.06635 121.22732 106 ft 8 kts 51°
2026-04-23 13:58 25.06677 121.22785 106 ft 10 kts 48°
2026-04-23 13:58 25.06730 121.22851 105 ft 13 kts 49°
2026-04-23 13:59 25.06791 121.22930 106 ft 15 kts 49°
2026-04-23 13:59 25.06861 121.23020 106 ft 16 kts 49°
2026-04-23 13:59 25.06940 121.23120 106 ft 18 kts 49°
2026-04-23 13:59 25.07021 121.23223 106 ft 16 kts 49°
2026-04-23 14:00 25.07069 121.23284 106 ft 16 kts 48°
2026-04-23 14:00 25.07177 121.23419 106 ft 19 kts 49°
2026-04-23 14:00 25.07267 121.23533 106 ft 20 kts 49°
2026-04-23 14:00 25.07364 121.23655 105 ft 22 kts 49°
2026-04-23 14:01 25.07466 121.23786 105 ft 22 kts 50°
2026-04-23 14:01 25.07559 121.23904 106 ft 19 kts 48°
2026-04-23 14:01 25.07645 121.24011 106 ft 18 kts 48°
2026-04-23 14:01 25.07722 121.24109 106 ft 17 kts 49°
2026-04-23 14:02 25.07799 121.24208 106 ft 17 kts 49°
2026-04-23 14:02 25.07875 121.24306 106 ft 16 kts 49°
2026-04-23 14:02 25.07946 121.24394 106 ft 16 kts 49°
2026-04-23 14:02 25.08018 121.24467 105 ft 9 kts 10°
2026-04-23 14:03 25.08071 121.24441 106 ft 9 kts 328°
2026-04-23 14:03 25.08130 121.24390 107 ft 12 kts 316°
2026-04-23 14:03 25.08197 121.24322 107 ft 14 kts 319°
2026-04-23 14:03 25.08280 121.24243 107 ft 17 kts 320°
2026-04-23 14:04 25.08377 121.24153 107 ft 19 kts 320°
2026-04-23 14:04 25.08485 121.24051 107 ft 22 kts 319°
2026-04-23 14:04 25.08563 121.23977 107 ft 23 kts 320°
2026-04-23 14:04 25.08648 121.23897 107 ft 0 kts 319°
2026-04-23 14:06 25.08655 121.23890 107 ft 3 kts 319°
2026-04-23 14:06 25.08681 121.23866 107 ft 7 kts 319°
2026-04-23 14:06 25.08708 121.23839 107 ft 9 kts 319°
2026-04-23 14:07 25.08726 121.23771 107 ft 11 kts 261°
2026-04-23 14:07 25.08617 121.23610 107 ft 13 kts 229°
2026-04-23 14:07 25.08551 121.23526 107 ft 15 kts 229°
2026-04-23 14:08 25.08473 121.23430 107 ft 18 kts 228°
2026-04-23 14:08 25.08384 121.23317 107 ft 21 kts 229°
2026-04-23 14:08 25.08280 121.23184 106 ft 24 kts 229°
2026-04-23 14:08 25.08178 121.23053 107 ft 20 kts 229°
2026-04-23 14:09 25.08081 121.22930 107 ft 21 kts 229°
2026-04-23 14:09 25.08000 121.22826 107 ft 18 kts 229°
2026-04-23 14:09 25.07910 121.22711 106 ft 21 kts 229°
2026-04-23 14:09 25.07812 121.22585 107 ft 22 kts 229°
2026-04-23 14:10 25.07705 121.22449 107 ft 24 kts 229°
2026-04-23 14:10 25.07595 121.22310 107 ft 21 kts 229°
2026-04-23 14:10 25.07499 121.22187 107 ft 22 kts 229°
2026-04-23 14:10 25.07393 121.22052 106 ft 25 kts 229°
2026-04-23 14:11 25.07294 121.21927 107 ft 21 kts 229°
2026-04-23 14:11 25.07198 121.21805 107 ft 17 kts 229°
2026-04-23 14:11 25.07121 121.21806 107 ft 13 kts 136°
2026-04-23 14:11 25.07115 121.21838 107 ft 3 kts 72°
2026-04-23 14:12 25.07127 121.21868 107 ft 6 kts 64°
2026-04-23 14:12 25.07159 121.21914 107 ft 9 kts 49°
2026-04-23 14:12 25.07205 121.21972 107 ft 11 kts 49°
2026-04-23 14:12 25.07259 121.22040 107 ft 12 kts 49°
2026-04-23 14:13 25.07294 121.22119 107 ft 12 kts 96°
2026-04-23 14:13 25.07260 121.22166 107 ft 8 kts 140°
2026-04-23 14:13 25.07209 121.22214 107 ft 11 kts 139°
2026-04-23 14:13 25.07142 121.22278 107 ft 14 kts 139°
2026-04-23 14:14 25.07061 121.22355 106 ft 17 kts 139°
2026-04-23 14:14 25.06966 121.22445 107 ft 19 kts 139°
2026-04-23 14:14 25.06860 121.22547 106 ft 21 kts 139°
2026-04-23 14:14 25.06748 121.22653 107 ft 21 kts 140°
2026-04-23 14:15 25.06677 121.22751 106 ft 15 kts 94°
2026-04-23 14:15 25.06730 121.22856 105 ft 16 kts 45°
2026-04-23 14:15 25.06794 121.22934 106 ft 13 kts 51°
2026-04-23 14:15 25.06858 121.23015 106 ft 15 kts 47°
2026-04-23 14:16 25.06930 121.23106 106 ft 17 kts 49°
2026-04-23 14:16 25.07011 121.23208 105 ft 19 kts 49°
2026-04-23 14:16 25.07100 121.23320 106 ft 20 kts 49°
2026-04-23 14:16 25.07195 121.23441 106 ft 22 kts 49°
2026-04-23 14:17 25.07300 121.23573 105 ft 23 kts 49°
2026-04-23 14:17 25.07408 121.23712 105 ft 25 kts 49°
2026-04-23 14:17 25.07518 121.23852 104 ft 25 kts 49°
2026-04-23 14:17 25.07629 121.23994 106 ft 24 kts 48°
2026-04-23 14:18 25.07739 121.24133 106 ft 23 kts 50°
2026-04-23 14:18 25.07828 121.24247 106 ft 16 kts 49°
2026-04-23 14:18 25.07854 121.24270 106 ft 2 kts 24°
2026-04-23 14:18 25.07887 121.24269 106 ft 5 kts 342°
2026-04-23 14:19 25.07917 121.24239 107 ft 7 kts 318°
2026-04-23 14:19 25.07935 121.24222 107 ft 0 kts 319°
2026-04-23 14:20 25.07958 121.24200 107 ft 7 kts 319°
2026-04-23 14:20 25.08007 121.24172 107 ft 9 kts 357°
2026-04-23 14:20 25.08051 121.24211 107 ft 9 kts 50°
2026-04-23 14:20 25.08098 121.24270 107 ft 11 kts 49°
2026-04-23 14:21 25.08140 121.24344 107 ft 10 kts 91°
2026-04-23 14:21 25.08100 121.24412 107 ft 12 kts 135°
2026-04-23 14:21 25.08029 121.24474 106 ft 9 kts 160°
2026-04-23 14:21 25.08005 121.24462 106 ft 4 kts 221°
2026-04-23 14:22 25.07962 121.24412 106 ft 12 kts 229°
2026-04-23 14:22 25.07899 121.24335 104 ft 15 kts 228°
2026-04-23 14:22 25.07822 121.24239 105 ft 18 kts 229°
2026-04-23 14:22 25.07733 121.24126 106 ft 19 kts 229°
2026-04-23 14:23 25.07645 121.24014 106 ft 21 kts 229°
2026-04-23 14:23 25.07547 121.23891 105 ft 20 kts 229°
2026-04-23 14:23 25.07499 121.23804 106 ft 10 kts 275°
2026-04-23 14:23 25.07546 121.23746 106 ft 11 kts 318°
2026-04-23 14:24 25.07555 121.23738 107 ft 0 kts 318°
2026-04-23 14:55 25.07569 121.23724 107 ft 5 kts 318°
2026-04-23 14:55 25.07601 121.23689 107 ft 8 kts 308°
2026-04-23 14:55 25.07600 121.23633 106 ft 8 kts 242°
2026-04-23 14:55 25.07553 121.23574 107 ft 0 kts 229°
2026-04-23 14:59 25.07551 121.23572 107 ft 1 kts 229°
2026-04-23 14:59 25.07541 121.23559 107 ft 4 kts 229°
2026-04-23 15:00 25.07512 121.23523 107 ft 8 kts 229°
2026-04-23 15:00 25.07467 121.23466 107 ft 12 kts 229°
2026-04-23 15:00 25.07407 121.23389 107 ft 15 kts 229°
2026-04-23 15:00 25.07335 121.23297 106 ft 15 kts 229°
2026-04-23 15:01 25.07289 121.23239 107 ft 6 kts 229°
2026-04-23 15:01 25.07257 121.23198 107 ft 8 kts 229°
2026-04-23 15:01 25.07207 121.23190 107 ft 8 kts 162°
2026-04-23 15:01 25.07155 121.23235 107 ft 11 kts 140°
2026-04-23 15:02 25.07085 121.23273 106 ft 10 kts 187°
2026-04-23 15:02 25.07020 121.23220 106 ft 13 kts 226°
2026-04-23 15:02 25.06951 121.23134 106 ft 16 kts 227°
2026-04-23 15:02 25.06868 121.23032 106 ft 19 kts 229°
2026-04-23 15:03 25.06777 121.22914 105 ft 21 kts 229°
2026-04-23 15:03 25.06680 121.22791 106 ft 21 kts 229°
2026-04-23 15:03 25.06583 121.22669 106 ft 21 kts 229°
2026-04-23 15:03 25.06490 121.22549 106 ft 19 kts 229°
2026-04-23 15:04 25.06419 121.22459 106 ft 9 kts 229°
2026-04-23 15:04 25.06395 121.22430 106 ft 5 kts 229°
2026-04-23 15:04 25.06370 121.22398 106 ft 6 kts 229°
2026-04-23 15:04 25.06338 121.22358 106 ft 8 kts 229°
2026-04-23 15:05 25.06300 121.22309 106 ft 9 kts 229°
2026-04-23 15:05 25.06270 121.22273 106 ft 4 kts 226°
2026-04-23 15:05 25.06246 121.22257 106 ft 2 kts 201°
2026-04-23 15:05 25.06232 121.22254 106 ft 2 kts 187°
2026-04-23 15:06 25.06223 121.22254 106 ft 1 kts 175°
2026-04-23 15:06 25.06222 121.22255 106 ft 0 kts 174°
2026-04-23 15:07 25.06208 121.22258 105 ft 4 kts 165°
2026-04-23 15:07 25.06184 121.22275 106 ft 0 kts 140°
2026-04-23 15:09 25.06172 121.22286 105 ft 7 kts 140°
2026-04-23 15:10 25.06145 121.22312 104 ft 8 kts 136°
2026-04-23 15:10 25.06120 121.22392 105 ft 9 kts 77°
2026-04-23 15:10 25.06202 121.22499 104 ft 47 kts 48°
2026-04-23 15:10 25.06583 121.22986 102 ft 118 kts 48°
2026-04-23 15:11 25.07222 121.23806 426 ft 149 kts 48°
2026-04-23 15:11 25.07885 121.24677 1162 ft 150 kts 49°
2026-04-23 15:11 25.08615 121.25612 1545 ft 172 kts 48°
2026-04-23 15:11 25.09484 121.26680 1654 ft 202 kts 47°
2026-04-23 15:12 25.10462 121.27933 1882 ft 228 kts 49°
2026-04-23 15:12 25.11525 121.29348 2214 ft 250 kts 50°
2026-04-23 15:12 25.12706 121.30828 2713 ft 264 kts 46°
2026-04-23 15:12 25.14016 121.32338 3176 ft 279 kts 45°
2026-04-23 15:13 25.15394 121.33878 3773 ft 286 kts 44°
2026-04-23 15:13 25.16803 121.35458 4390 ft 292 kts 44°
2026-04-23 15:13 25.18236 121.37078 4986 ft 299 kts 45°
2026-04-23 15:13 25.19691 121.38739 5609 ft 302 kts 44°
2026-04-23 15:14 25.21159 121.40423 6256 ft 306 kts 45°
2026-04-23 15:14 25.22646 121.42131 6849 ft 311 kts 45°
2026-04-23 15:14 25.24156 121.43868 7429 ft 315 kts 45°
2026-04-23 15:14 25.25666 121.45649 7996 ft 321 kts 48°
2026-04-23 15:15 25.26821 121.47730 8541 ft 325 kts 71°
2026-04-23 15:15 25.27158 121.50169 9118 ft 321 kts 98°
2026-04-23 15:15 25.26705 121.52565 9699 ft 319 kts 112°
2026-04-23 15:15 25.26025 121.54911 10202 ft 325 kts 114°
2026-04-23 15:16 25.25288 121.57336 10437 ft 341 kts 114°
2026-04-23 15:16 25.24524 121.59878 10656 ft 357 kts 113°
2026-04-23 15:16 25.23739 121.62538 10886 ft 371 kts 113°
2026-04-23 15:16 25.22921 121.65329 11187 ft 381 kts 112°
2026-04-23 15:17 25.22113 121.68099 11596 ft 387 kts 112°
2026-04-23 15:17 25.21288 121.70944 12030 ft 391 kts 112°
2026-04-23 15:17 25.20456 121.73821 12472 ft 395 kts 112°
2026-04-23 15:17 25.19618 121.76722 12937 ft 398 kts 112°
2026-04-23 15:18 25.18773 121.79646 13386 ft 401 kts 112°
2026-04-23 15:18 25.17921 121.82592 13806 ft 405 kts 112°
2026-04-23 15:18 25.17063 121.85561 14219 ft 407 kts 112°
2026-04-23 15:18 25.16199 121.88544 14643 ft 409 kts 111°
2026-04-23 15:19 25.15331 121.91539 15053 ft 411 kts 111°
2026-04-23 15:19 25.14459 121.94549 15476 ft 412 kts 111°
2026-04-23 15:19 25.13590 121.97571 15886 ft 415 kts 110°
2026-04-23 15:19 25.12940 122.00696 16283 ft 420 kts 103°
2026-04-23 15:20 25.12642 122.02808 16546 ft 422 kts 100°
2026-04-23 15:20 25.12222 122.07129 17080 ft 425 kts 97°
2026-04-23 15:20 25.11988 122.10390 17481 ft 427 kts 96°
2026-04-23 15:20 25.11774 122.13670 17859 ft 430 kts 96°
2026-04-23 15:21 25.11556 122.16965 18247 ft 432 kts 96°
2026-04-23 15:21 25.11320 122.20274 18566 ft 434 kts 96°
2026-04-23 15:21 25.11065 122.23600 18906 ft 435 kts 96°
2026-04-23 15:21 25.10794 122.26928 19242 ft 437 kts 97°
2026-04-23 15:22 25.10513 122.30271 19574 ft 439 kts 97°
2026-04-23 15:22 25.10211 122.33626 19897 ft 440 kts 97°
2026-04-23 15:22 25.09888 122.36991 20221 ft 442 kts 98°
2026-04-23 15:22 25.09554 122.40363 20543 ft 443 kts 98°
2026-04-23 15:23 25.09214 122.43752 20862 ft 445 kts 98°
2026-04-23 15:23 25.08874 122.47154 21178 ft 447 kts 98°
2026-04-23 15:23 25.08537 122.50568 21490 ft 449 kts 98°
2026-04-23 15:23 25.08200 122.53997 21800 ft 451 kts 98°
2026-04-23 15:24 25.07864 122.57443 22082 ft 453 kts 98°
2026-04-23 15:24 25.07531 122.60865 22354 ft 456 kts 98°
2026-04-23 15:24 25.07191 122.64350 22628 ft 458 kts 98°
2026-04-23 15:24 25.06844 122.67902 22914 ft 461 kts 98°
2026-04-23 15:25 25.06505 122.71370 23181 ft 463 kts 98°
2026-04-23 15:25 25.06157 122.74911 23452 ft 465 kts 99°
2026-04-23 15:25 25.05808 122.78467 23675 ft 468 kts 99°
2026-04-23 15:25 25.05455 122.82044 23890 ft 470 kts 99°
2026-04-23 15:26 25.05099 122.85636 24117 ft 472 kts 99°
2026-04-23 15:26 25.04740 122.89245 24343 ft 475 kts 99°
2026-04-23 15:26 25.04378 122.92871 24567 ft 477 kts 98°
2026-04-23 15:26 25.04014 122.96513 24784 ft 479 kts 98°
2026-04-23 15:27 25.03649 123.00170 25011 ft 481 kts 98°
2026-04-23 15:27 25.03282 123.03845 25239 ft 483 kts 98°
2026-04-23 15:27 25.02913 123.07533 25457 ft 485 kts 98°
2026-04-23 15:27 25.02541 123.11244 25682 ft 488 kts 98°
2026-04-23 15:28 25.02167 123.14968 25922 ft 490 kts 98°
2026-04-23 15:28 25.01790 123.18706 26167 ft 491 kts 98°
2026-04-23 15:28 25.01413 123.22454 26404 ft 493 kts 98°
2026-04-23 15:28 25.01030 123.26220 26650 ft 495 kts 98°
2026-04-23 15:29 25.00644 123.30005 26901 ft 498 kts 98°
2026-04-23 15:29 25.00256 123.33800 27149 ft 500 kts 98°
2026-04-23 15:29 24.99864 123.37616 27394 ft 502 kts 98°
2026-04-23 15:29 24.99471 123.41442 27644 ft 504 kts 98°
2026-04-23 15:30 24.99074 123.45289 27906 ft 506 kts 98°
2026-04-23 15:30 24.98676 123.49150 28165 ft 508 kts 98°
2026-04-23 15:30 24.98275 123.53028 28428 ft 510 kts 98°
2026-04-23 15:30 24.97871 123.56921 28697 ft 512 kts 98°
2026-04-23 15:31 24.97466 123.60823 28891 ft 511 kts 98°
2026-04-23 15:31 24.97070 123.64645 28912 ft 494 kts 98°
2026-04-23 15:31 24.96686 123.68347 28909 ft 479 kts 98°
2026-04-23 15:32 24.95935 123.75532 28913 ft 470 kts 99°
2026-04-23 15:32 24.95177 123.82681 28920 ft 470 kts 99°
2026-04-23 15:33 24.94418 123.89827 28913 ft 469 kts 99°
2026-04-23 15:33 24.93663 123.96920 28917 ft 469 kts 98°
2026-04-23 15:34 24.92896 124.04050 28913 ft 469 kts 99°
2026-04-23 15:34 24.92087 124.11172 28913 ft 468 kts 99°
2026-04-23 15:35 24.91257 124.18287 28915 ft 468 kts 99°
2026-04-23 15:35 24.90420 124.25391 28903 ft 468 kts 99°
2026-04-23 15:36 24.89580 124.32491 28903 ft 468 kts 99°
2026-04-23 15:36 24.88738 124.39593 28900 ft 468 kts 99°
2026-04-23 15:37 24.87892 124.46699 28905 ft 468 kts 99°
2026-04-23 15:37 24.87186 124.52610 28901 ft 469 kts 99°
2026-04-23 15:38 24.86187 124.60931 28882 ft 469 kts 99°
2026-04-23 15:38 24.85328 124.68054 28894 ft 469 kts 99°
2026-04-23 15:39 24.84466 124.75176 28892 ft 469 kts 99°
2026-04-23 15:39 24.83601 124.82298 28892 ft 469 kts 99°
2026-04-23 15:40 24.82734 124.89420 28886 ft 469 kts 99°
2026-04-23 15:40 24.81864 124.96538 28888 ft 469 kts 99°
2026-04-23 15:41 24.80987 125.03649 28877 ft 469 kts 99°
2026-04-23 15:41 24.80108 125.10754 28877 ft 468 kts 99°
2026-04-23 15:42 24.79377 125.16653 28882 ft 468 kts 99°
2026-04-23 15:42 24.78356 125.24944 28884 ft 468 kts 97°
2026-04-23 15:43 24.78915 125.30827 28887 ft 468 kts 69°
2026-04-23 15:43 24.81819 125.37186 28888 ft 464 kts 56°
2026-04-23 15:44 24.85307 125.43159 28886 ft 464 kts 54°
2026-04-23 15:44 24.88839 125.49108 28889 ft 464 kts 54°
2026-04-23 15:45 24.92304 125.55118 28891 ft 465 kts 55°
2026-04-23 15:45 24.95724 125.61165 28886 ft 465 kts 56°
2026-04-23 15:46 24.99134 125.67226 28888 ft 465 kts 56°
2026-04-23 15:46 25.02547 125.73294 28890 ft 466 kts 56°
2026-04-23 15:47 25.05960 125.79362 28888 ft 466 kts 56°
2026-04-23 15:47 25.09373 125.85437 28889 ft 466 kts 56°
2026-04-23 15:48 25.12787 125.91520 28889 ft 466 kts 56°
2026-04-23 15:48 25.16197 125.97604 28873 ft 466 kts 56°
2026-04-23 15:49 25.19584 126.03653 28895 ft 466 kts 56°
2026-04-23 15:49 25.22988 126.09743 28895 ft 466 kts 56°
2026-04-23 15:50 25.26384 126.15827 28878 ft 465 kts 56°
2026-04-23 15:50 25.29777 126.21913 28878 ft 465 kts 56°
2026-04-23 15:50 25.31457 126.24930 28579 ft 458 kts 56°
2026-04-23 15:51 25.33121 126.27924 27584 ft 457 kts 56°
2026-04-23 15:51 25.34800 126.30937 26320 ft 464 kts 56°
2026-04-23 15:51 25.36513 126.33987 25069 ft 470 kts 56°
2026-04-23 15:51 25.38257 126.37064 23778 ft 475 kts 56°
2026-04-23 15:52 25.40007 126.40165 22789 ft 470 kts 57°
2026-04-23 15:52 25.41694 126.43193 22241 ft 458 kts 57°
2026-04-23 15:52 25.43354 126.46189 21662 ft 455 kts 57°
2026-04-23 15:52 25.44994 126.49160 21110 ft 451 kts 57°
2026-04-23 15:53 25.46619 126.52108 20528 ft 446 kts 57°
2026-04-23 15:53 25.48225 126.55021 19957 ft 441 kts 58°
2026-04-23 15:53 25.49825 126.57927 19384 ft 442 kts 58°
2026-04-23 15:53 25.51421 126.60831 18801 ft 441 kts 58°
2026-04-23 15:54 25.53008 126.63723 18226 ft 439 kts 58°
2026-04-23 15:54 25.54589 126.66605 17575 ft 436 kts 58°
2026-04-23 15:54 25.56157 126.69464 16974 ft 432 kts 58°
2026-04-23 15:54 25.57708 126.72295 16387 ft 428 kts 58°
2026-04-23 15:55 25.59246 126.75101 15834 ft 424 kts 58°
2026-04-23 15:55 25.60771 126.77885 15256 ft 421 kts 58°
2026-04-23 15:55 25.62283 126.80647 14681 ft 417 kts 58°
2026-04-23 15:55 25.63783 126.83387 14116 ft 414 kts 58°
2026-04-23 15:56 25.65270 126.86108 13532 ft 411 kts 58°
2026-04-23 15:56 25.66739 126.88797 13035 ft 404 kts 58°
2026-04-23 15:56 25.68181 126.91442 12515 ft 398 kts 58°
2026-04-23 15:56 25.69603 126.94054 11969 ft 394 kts 58°
2026-04-23 15:57 25.71009 126.96637 11422 ft 389 kts 58°
2026-04-23 15:57 25.72388 126.99164 11205 ft 375 kts 58°
2026-04-23 15:57 25.73711 127.01590 11086 ft 360 kts 58°
2026-04-23 15:57 25.74978 127.03915 10952 ft 345 kts 58°
2026-04-23 15:58 25.76195 127.06151 10820 ft 332 kts 58°
2026-04-23 15:58 25.77369 127.08307 10673 ft 321 kts 58°
2026-04-23 15:58 25.78515 127.10415 10339 ft 318 kts 58°
2026-04-23 15:58 25.79653 127.12507 10004 ft 315 kts 58°
2026-04-23 15:59 25.80787 127.14593 9683 ft 318 kts 58°
2026-04-23 15:59 25.81934 127.16701 9343 ft 319 kts 58°
2026-04-23 15:59 25.83080 127.18805 9030 ft 317 kts 58°
2026-04-23 15:59 25.84207 127.20861 8719 ft 315 kts 58°
2026-04-23 16:00 25.85338 127.22927 8400 ft 312 kts 58°
2026-04-23 16:00 25.86457 127.24982 8096 ft 310 kts 58°
2026-04-23 16:00 25.87582 127.27051 7772 ft 308 kts 58°
2026-04-23 16:00 25.88667 127.29051 7453 ft 305 kts 58°
2026-04-23 16:01 25.89658 127.31127 7099 ft 304 kts 68°
2026-04-23 16:01 25.90298 127.33360 6682 ft 303 kts 75°
2026-04-23 16:01 25.90823 127.35615 6309 ft 300 kts 76°
2026-04-23 16:01 25.91328 127.37843 5979 ft 296 kts 76°
2026-04-23 16:02 25.91832 127.40050 5651 ft 294 kts 75°
2026-04-23 16:02 25.92338 127.42247 5330 ft 293 kts 75°
2026-04-23 16:02 25.92845 127.44435 5010 ft 292 kts 75°
2026-04-23 16:02 25.93352 127.46615 4727 ft 290 kts 75°
2026-04-23 16:03 25.93845 127.48737 4572 ft 278 kts 74°
2026-04-23 16:03 25.94319 127.50770 4449 ft 266 kts 75°
2026-04-23 16:03 25.94774 127.52723 4311 ft 256 kts 75°
2026-04-23 16:03 25.95213 127.54602 4168 ft 246 kts 75°
2026-04-23 16:04 25.95634 127.56419 3991 ft 240 kts 75°
2026-04-23 16:04 25.96151 127.58162 3761 ft 236 kts 64°
2026-04-23 16:04 25.97077 127.59630 3529 ft 231 kts 42°
2026-04-23 16:04 25.98322 127.60728 3320 ft 227 kts 33°
2026-04-23 16:05 25.99187 127.61377 3171 ft 226 kts 31°
2026-04-23 16:05 26.00943 127.62659 2861 ft 225 kts 30°
2026-04-23 16:05 26.02258 127.63598 2657 ft 223 kts 30°
2026-04-23 16:05 26.03573 127.64504 2415 ft 221 kts 27°
2026-04-23 16:06 26.04996 127.65064 2220 ft 214 kts 11°
2026-04-23 16:06 26.06420 127.65390 2117 ft 204 kts
2026-04-23 16:06 26.07798 127.65282 1997 ft 196 kts 349°
2026-04-23 16:06 26.09153 127.65183 1767 ft 195 kts 360°
2026-04-23 16:07 26.10465 127.65156 1547 ft 182 kts 355°
2026-04-23 16:07 26.11681 127.65064 1278 ft 169 kts 354°
2026-04-23 16:07 26.12810 127.64997 1062 ft 156 kts 354°
2026-04-23 16:07 26.13849 127.64939 865 ft 143 kts 355°
2026-04-23 16:08 26.14804 127.64869 718 ft 134 kts 352°
2026-04-23 16:08 26.15726 127.64767 578 ft 132 kts 352°
2026-04-23 16:08 26.16634 127.64710 379 ft 129 kts 357°
2026-04-23 16:08 26.17528 127.64682 221 ft 128 kts 357°
2026-04-23 16:09 26.18416 127.64643 59 ft 127 kts 357°
2026-04-23 16:09 26.19246 127.64604 27 ft 104 kts 356°
2026-04-23 16:09 26.19824 127.64577 25 ft 62 kts 359°
2026-04-23 16:09 26.20183 127.64583 30 ft 47 kts 13°
2026-04-23 16:10 26.20444 127.64714 30 ft 29 kts 27°
2026-04-23 16:10 26.20528 127.64753 29 ft 2 kts 16°
2026-04-23 16:10 26.20552 127.64757 30 ft 5 kts
2026-04-23 16:10 26.20595 127.64755 29 ft 8 kts 356°
2026-04-23 16:11 26.20654 127.64751 29 ft 8 kts 356°
2026-04-23 16:11 26.20671 127.64749 29 ft 0 kts 356°
2026-04-23 16:11 26.20673 127.64749 29 ft 3 kts 356°
2026-04-23 16:12 26.20749 127.64746 29 ft 13 kts 358°
2026-04-23 16:12 26.20852 127.64742 29 ft 16 kts 358°
2026-04-23 16:12 26.20960 127.64741 29 ft 15 kts
2026-04-23 16:12 26.21068 127.64758 30 ft 16 kts 359°
2026-04-23 16:13 26.21154 127.64753 29 ft 9 kts 357°
2026-04-23 16:13 26.21259 127.64778 31 ft 5 kts 76°
2026-04-23 16:13 26.21262 127.64827 29 ft 8 kts 88°
2026-04-23 16:14 26.21241 127.64877 31 ft 7 kts 149°
2026-04-23 16:14 26.21191 127.64887 30 ft 9 kts 174°
2026-04-23 16:14 26.21117 127.64895 29 ft 12 kts 175°
2026-04-23 16:14 26.21084 127.64919 32 ft 4 kts 117°
2026-04-23 16:15 26.21077 127.64956 29 ft 4 kts 95°
2026-04-23 16:15 26.21077 127.64971 28 ft 0 kts 89°